Temp
-8 -8 -8 -8 -8 -8 -8 -8 -8 -6 -6 -6 -6 -6 -6 -6 -5 -6 -6 -6 -7 -6 -6 -6 -6 -6 -6 -7 -7 -8 -8 -8 -8 -8 -7 -8 -8 -8 -8 -8 -8 -8 -8 -7
-8 -8 -10 -9 -9 -9 -9 -7 -8 -7 -6 -6 -6 -5 -5 -6 -6 -7 -6 -6 -7 -7 -6 -6 -6 -6 -6 -6 -7 -8 -7 -7 -8 -8 -7 -8 -8 -7 -7 -7 -8 -7 -8 -8
-9 -10 -11 -11 -10 -9 -9 -8 -8 -8 -7 -7 -7 -6 -6 -6 -6 -6 -6 -6 -6 -6 -6 -7 -7 -7 -6 -6 -6 -7 -7 -8 -8 -7 -7 -7 -7 -7 -7 -7 -7 -7 -8 -8
-10 -11 -11 -11 -10 -10 -9 -8 -8 -8 -7 -7 -7 -7 -6 -6 -6 -6 -5 -5 -6 -6 -6 -7 -7 -7 -6 -6 -6 -6 -7 -7 -8 -7 -7 -7 -7 -7 -7 -7 -8 -7 -8 -7
-11 -12 -12 -12 -11 -9 -9 -8 -9 -8 -8 -8 -7 -6 -6 -5 -6 -6 -6 -7 -7 -6 -5 -6 -6 -6 -7 -6 -7 -6 -6 -7 -7 -7 -7 -7 -7 -7 -7 -7 -7 -7 -7 -7
-11 -12 -12 -12 -10 -10 -9 -9 -8 -9 -8 -8 -7 -6 -6 -5 -7 -6 -6 -6 -7 -7 -6 -6 -6 -6 -6 -7 -7 -7 -6 -7 -7 -7 -7 -7 -7 -7 -7 -7 -7 -7 -7 -7
-12 -12 -12 -12 -10 -9 -10 -10 -9 -9 -8 -8 -7 -6 -6 -6 -6 -6 -5 -5 -6 -7 -7 -6 -6 -6 -6 -7 -7 -7 -7 -7 -7 -7 -6 -7 -7 -6 -6 -7 -7 -7 -7 -7
-12 -12 -12 -12 -11 -10 -9 -10 -9 -9 -9 -9 -8 -7 -6 -7 -7 -7 -6 -6 -7 -7 -6 -6 -6 -6 -6 -6 -7 -7 -7 -7 -7 -7 -7 -7 -7 -7 -7 -6 -6 -7 -7 -7
-12 -12 -13 -11 -11 -11 -10 -10 -10 -9 -8 -9 -9 -8 -7 -7 -8 -8 -7 -7 -6 -6 -6 -6 -6 -6 -6 -6 -6 -6 -7 -7 -7 -6 -6 -6 -6 -7 -7 -7 -6 -6 -6 -7
-12 -12 -12 -12 -12 -11 -11 -11 -9 -10 -9 -9 -9 -8 -8 -8 -8 -7 -7 -7 -8 -8 -6 -6 -6 -6 -6 -6 -5 -6 -6 -7 -7 -7 -6 -6 -6 -6 -7 -7 -6 -6 -6 -6
-12 -12 -12 -12 -12 -12 -11 -11 -11 -11 -11 -11 -10 -9 -8 -8 -8 -8 -7 -7 -7 -7 -7 -6 -7 -7 -7 -6 -6 -6 -7 -6 -7 -7 -7 -7 -7 -6 -7 -7 -7 -7 -7 -6
-12 -12 -12 -12 -12 -12 -12 -12 -12 -12 -12 -11 -10 -9 -8 -8 -8 -8 -7 -7 -7 -6 -6 -6 -6 -7 -7 -6 -6 -6 -7 -7 -7 -7 -7 -7 -7 -7 -7 -7 -7 -7 -7 -7
-12 -12 -12 -12 -12 -12 -12 -12 -12 -11 -11 -10 -10 -9 -9 -9 -8 -7 -7 -7 -6 -6 -7 -7 -6 -7 -7 -7 -7 -7 -7 -7 -7 -6 -7 -7 -6 -7 -8 -7 -7 -7 -7 -7
-12 -12 -12 -12 -12 -12 -12 -12 -12 -12 -11 -11 -10 -10 -10 -8 -8 -8 -7 -7 -7 -8 -9 -8 -7 -7 -7 -7 -7 -7 -7 -7 -7 -7 -7 -9 -7 -7 -7 -8 -7 -7 -7 -7
-13 -13 -13 -12 -12 -12 -12 -12 -12 -11 -12 -11 -10 -11 -10 -10 -9 -8 -8 -7 -7 -7 -8 -8 -7 -8 -7 -8 -7 -7 -7 -7 -7 -6 -6 -7 -8 -7 -6 -7 -8 -7 -7 -7
-13 -13 -13 -13 -12 -12 -12 -12 -12 -11 -11 -11 -11 -10 -10 -10 -10 -10 -8 -9 -8 -9 -9 -9 -9 -9 -8 -7 -8 -7 -7 -7 -7 -6 -7 -7 -6 -8 -8 -7 -7 -8 -8 -7
-13 -14 -13 -13 -12 -12 -12 -12 -12 -12 -12 -12 -11 -11 -10 -10 -10 -10 -9 -8 -9 -9 -8 -8 -8 -8 -8 -6 -7 -7 -7 -7 -7 -7 -7 -7 -7 -7 -7 -8 -7 -7 -8 -7
-14 -14 -15 -14 -14 -12 -13 -13 -12 -12 -12 -12 -12 -11 -11 -10 -10 -10 -9 -9 -9 -9 -8 -8 -7 -7 -7 -7 -7 -8 -7 -7 -7 -7 -7 -7 -7 -7 -7 -7 -7 -7 -8 -8
-14 -13 -13 -14 -14 -14 -14 -13 -13 -12 -12 -12 -12 -12 -12 -11 -11 -10 -11 -9 -9 -9 -9 -9 -8 -8 -8 -8 -6 -7 -7 -7 -7 -7 -7 -7 -7 -7 -7 -7 -7 -7 -7 -8
-14 -13 -13 -14 -14 -14 -14 -14 -13 -13 -12 -12 -12 -12 -12 -12 -11 -11 -11 -10 -10 -10 -10 -10 -9 -8 -8 -8 -8 -9 -7 -7 -7 -7 -7 -7 -7 -7 -7 -7 -7 -7 -7 -7
-14 -14 -14 -14 -14 -14 -14 -14 -14 -13 -13 -13 -12 -13 -12 -12 -12 -12 -12 -11 -11 -10 -10 -10 -9 -8 -9 -8 -9 -10 -9 -9 -9 -8 -8 -8 -8 -8 -8 -9 -8 -8 -8 -7
-14 -14 -14 -14 -14 -14 -14 -15 -14 -14 -14 -13 -13 -13 -13 -13 -13 -13 -12 -12 -12 -11 -11 -11 -11 -10 -10 -10 -9 -9 -9 -10 -9 -9 -9 -8 -8 -9 -9 -8 -9 -9 -9 -8
-14 -14 -14 -14 -14 -14 -14 -14 -14 -14 -14 -14 -14 -14 -14 -13 -13 -13 -12 -12 -11 -11 -11 -11 -11 -11 -10 -10 -10 -10 -10 -9 -10 -10 -9 -9 -9 -8 -8 -8 -8 -8 -8 -8
-14 -14 -14 -14 -14 -15 -15 -15 -15 -15 -14 -15 -15 -15 -15 -15 -14 -14 -13 -13 -12 -12 -12 -12 -12 -11 -11 -11 -10 -10 -10 -11 -10 -10 -10 -9 -9 -9 -9 -9 -9 -9 -9 -8
-14 -14 -14 -14 -14 -14 -14 -14 -14 -16 -16 -15 -15 -15 -15 -15 -15 -14 -14 -14 -13 -13 -13 -13 -12 -13 -12 -11 -11 -11 -10 -10 -10 -10 -10 -10 -9 -9 -9 -9 -9 -10 -9 -9
-13 -13 -14 -14 -14 -14 -14 -14 -15 -16 -16 -17 -16 -15 -16 -15 -14 -14 -13 -14 -13 -13 -13 -12 -12 -12 -12 -13 -12 -11 -12 -12 -12 -11 -10 -10 -10 -9 -9 -9 -9 -9 -9 -10
Height
5842 5846 5852 5863 5863 5863 5864 5867 5869 5871 5871 5871 5876 5881 5882 5882 5884 5886 5889 5893 5895 5897 5899 5899 5903 5906 5908 5909 5910 5913 5914 5914 5916 5918 5920 5921 5922 5924 5926 5927 5927 5928 5930 5930
5840 5846 5854 5856 5860 5861 5863 5863 5864 5863 5862 5864 5869 5874 5877 5879 5879 5884 5887 5890 5893 5896 5898 5900 5902 5905 5908 5909 5912 5914 5916 5916 5917 5920 5921 5923 5924 5924 5926 5929 5930 5930 5931 5932
5839 5850 5848 5850 5855 5858 5860 5863 5864 5864 5863 5864 5868 5872 5875 5877 5878 5884 5884 5887 5890 5894 5898 5899 5901 5904 5907 5910 5912 5914 5916 5918 5919 5920 5923 5924 5925 5926 5926 5928 5930 5930 5931 5933
5837 5840 5844 5847 5853 5854 5859 5860 5862 5864 5866 5867 5870 5872 5873 5877 5880 5883 5883 5886 5889 5892 5896 5898 5901 5902 5907 5909 5910 5914 5916 5918 5919 5920 5923 5925 5926 5926 5927 5928 5930 5930 5932 5933
5833 5834 5839 5844 5850 5853 5858 5858 5860 5864 5864 5868 5870 5870 5872 5874 5877 5879 5882 5884 5887 5891 5894 5897 5900 5903 5907 5910 5911 5913 5917 5919 5920 5921 5921 5924 5925 5927 5927 5928 5930 5930 5932 5933
5828 5832 5837 5844 5840 5849 5851 5855 5858 5861 5862 5866 5867 5870 5870 5869 5871 5875 5878 5884 5885 5888 5892 5896 5900 5902 5905 5909 5911 5913 5915 5918 5920 5921 5922 5924 5926 5927 5928 5929 5931 5931 5932 5933
5826 5832 5838 5838 5835 5841 5847 5851 5855 5859 5861 5864 5866 5869 5869 5868 5869 5874 5875 5880 5883 5886 5890 5894 5897 5901 5903 5907 5911 5912 5915 5916 5919 5920 5921 5923 5926 5927 5928 5929 5931 5932 5932 5932
5828 5834 5837 5836 5839 5846 5853 5854 5854 5856 5858 5862 5864 5868 5869 5871 5870 5872 5875 5876 5879 5885 5888 5892 5894 5898 5902 5905 5910 5912 5913 5916 5918 5919 5921 5922 5923 5924 5927 5930 5931 5933 5935 5935
5827 5830 5831 5834 5842 5844 5848 5850 5854 5853 5856 5858 5862 5866 5868 5871 5872 5873 5875 5876 5878 5882 5888 5891 5893 5896 5900 5903 5906 5909 5911 5914 5916 5917 5920 5921 5922 5924 5927 5928 5930 5932 5934 5936
5825 5829 5833 5835 5839 5841 5847 5848 5848 5849 5854 5856 5861 5864 5866 5868 5873 5875 5874 5877 5879 5881 5884 5886 5891 5894 5896 5899 5902 5906 5910 5912 5914 5916 5917 5920 5921 5921 5924 5927 5929 5930 5933 5934
5822 5827 5832 5835 5837 5841 5843 5845 5846 5847 5851 5856 5860 5864 5866 5870 5873 5873 5875 5878 5881 5884 5884 5884 5887 5891 5894 5896 5900 5904 5908 5911 5913 5914 5916 5918 5920 5922 5922 5924 5927 5929 5931 5933
5821 5824 5829 5833 5837 5839 5839 5840 5845 5849 5853 5856 5860 5865 5866 5867 5871 5872 5874 5875 5876 5879 5883 5886 5886 5889 5891 5895 5897 5900 5903 5908 5910 5911 5912 5915 5917 5920 5921 5922 5923 5925 5928 5930
5819 5823 5827 5831 5835 5834 5834 5838 5841 5847 5852 5856 5858 5861 5864 5866 5868 5871 5871 5873 5872 5874 5879 5881 5887 5889 5890 5892 5893 5896 5897 5900 5903 5907 5908 5911 5912 5915 5917 5920 5921 5922 5923 5925
5818 5820 5826 5829 5829 5828 5831 5835 5838 5843 5848 5853 5855 5858 5858 5862 5864 5867 5869 5873 5871 5870 5874 5877 5882 5885 5887 5890 5892 5892 5894 5896 5899 5903 5904 5906 5909 5910 5911 5914 5916 5918 5919 5921
5816 5818 5819 5822 5825 5826 5829 5832 5836 5839 5843 5847 5852 5855 5856 5858 5860 5865 5868 5869 5870 5870 5872 5873 5876 5878 5881 5885 5886 5888 5890 5892 5895 5896 5899 5901 5903 5905 5905 5909 5913 5914 5915 5916
5810 5815 5816 5817 5815 5821 5825 5829 5833 5836 5839 5842 5846 5850 5852 5854 5857 5859 5864 5866 5868 5867 5868 5871 5872 5873 5874 5873 5877 5882 5885 5888 5889 5891 5892 5894 5894 5897 5901 5901 5904 5908 5910 5910
5805 5809 5814 5816 5812 5818 5823 5825 5828 5832 5835 5837 5841 5843 5844 5846 5850 5853 5857 5860 5863 5863 5864 5866 5867 5866 5866 5866 5868 5873 5876 5879 5882 5885 5886 5887 5887 5889 5892 5895 5898 5898 5901 5903
5805 5808 5810 5811 5811 5815 5818 5820 5826 5829 5832 5834 5836 5839 5841 5841 5843 5845 5850 5853 5854 5856 5857 5858 5860 5858 5859 5861 5862 5865 5867 5870 5872 5877 5880 5880 5880 5882 5883 5884 5888 5891 5893 5895
5802 5804 5806 5810 5811 5813 5814 5817 5820 5822 5825 5828 5830 5831 5833 5835 5838 5839 5841 5843 5845 5845 5848 5848 5850 5851 5849 5852 5854 5858 5861 5862 5867 5870 5872 5871 5874 5872 5876 5879 5882 5884 5885 5887
5800 5802 5803 5805 5807 5808 5808 5812 5815 5816 5819 5821 5823 5826 5829 5829 5831 5834 5834 5836 5838 5839 5840 5842 5845 5844 5843 5846 5853 5843 5846 5846 5859 5863 5861 5865 5867 5868 5869 5872 5875 5878 5881 5883
5796 5798 5800 5801 5802 5804 5805 5805 5807 5811 5818 5816 5817 5818 5822 5824 5826 5827 5829 5828 5830 5831 5832 5833 5835 5839 5839 5837 5840 5847 5853 5853 5855 5857 5858 5860 5861 5863 5865 5867 5870 5872 5874 5874
5794 5795 5797 5798 5799 5801 5801 5801 5801 5801 5802 5806 5809 5811 5813 5816 5817 5819 5822 5823 5822 5823 5825 5825 5828 5831 5832 5836 5837 5840 5845 5848 5850 5852 5854 5856 5858 5859 5860 5862 5865 5868 5871 5871
5793 5794 5794 5795 5794 5793 5794 5794 5794 5793 5794 5795 5798 5801 5802 5805 5808 5811 5813 5816 5817 5816 5817 5819 5821 5823 5826 5828 5831 5833 5835 5839 5843 5844 5845 5848 5851 5853 5855 5857 5857 5859 5861 5863
5791 5791 5792 5792 5791 5789 5786 5783 5781 5782 5783 5784 5787 5791 5794 5797 5800 5802 5804 5806 5809 5812 5812 5813 5815 5817 5818 5819 5823 5825 5827 5828 5832 5834 5835 5837 5841 5843 5845 5847 5848 5849 5851 5854
5789 5788 5788 5786 5784 5782 5778 5775 5770 5769 5770 5773 5777 5782 5786 5790 5793 5796 5798 5800 5801 5802 5805 5805 5807 5809 5813 5815 5814 5816 5819 5822 5825 5825 5827 5829 5832 5834 5836 5838 5840 5840 5841 5842
5786 5784 5784 5782 5780 5776 5771 5766 5763 5762 5760 5763 5768 5773 5778 5782 5785 5787 5790 5793 5795 5797 5798 5799 5800 5799 5799 5803 5806 5808 5809 5811 5812 5814 5816 5818 5820 5822 5823 5824 5828 5828 5829 5830
Wind_Speed
39 38 34 20 24 27 27 24 18 15 20 25 11 15 6 14 12 3 3 10 7 7 6 6 7 9 11 12 11 10 13 12 10 14 16 15 13 12 11 9 10 11 12 12
39 35 27 28 26 29 21 30 21 19 8 22 18 20 16 20 7 11 7 11 11 10 9 8 7 7 9 12 10 10 11 15 13 12 16 16 15 13 12 11 11 13 15 14
33 27 33 31 28 29 29 26 26 23 19 21 19 12 18 13 9 13 12 14 15 15 13 11 9 6 9 9 12 10 10 12 14 13 14 17 16 15 13 12 12 13 10 10
30 35 36 33 29 30 29 29 21 19 20 15 16 11 11 13 25 14 13 15 18 18 16 13 13 10 9 10 11 12 11 13 14 14 14 15 16 16 15 15 13 15 13 11
32 38 37 35 32 32 33 20 18 18 19 8 8 13 19 13 15 12 16 12 14 16 19 18 17 13 10 11 10 10 11 12 13 14 14 12 13 12 12 13 14 13 13 13
32 36 37 35 40 37 33 32 30 14 19 19 17 12 12 17 22 20 20 19 17 21 17 18 17 16 13 12 13 13 12 12 13 12 14 15 15 14 11 9 12 14 12 13
30 31 32 35 42 37 33 15 31 21 22 19 15 12 9 10 19 22 19 25 20 19 22 19 19 17 16 14 14 15 14 14 14 14 14 14 14 15 13 10 10 9 9 9
25 24 27 33 38 25 22 19 15 19 16 15 11 11 14 5 13 17 13 21 23 21 27 21 20 20 17 17 17 16 17 17 15 16 15 16 16 16 15 13 11 12 11 10
30 29 23 31 27 17 26 22 20 23 21 19 8 9 7 11 9 10 11 8 22 26 28 24 21 23 21 21 22 21 19 19 18 17 16 17 17 16 16 14 13 12 10 9
31 32 25 20 21 19 18 22 33 12 22 14 11 8 15 17 10 3 11 13 8 11 19 26 26 27 29 31 25 25 22 20 20 19 18 17 16 17 16 16 14 12 11 11
33 34 25 26 21 17 21 26 22 10 6 1 6 6 11 8 8 5 6 10 9 11 9 21 14 21 29 31 23 26 24 21 22 21 22 21 19 19 20 18 15 14 13 13
34 35 26 23 22 12 22 30 21 22 12 9 14 11 6 6 9 6 5 9 12 8 12 21 19 19 17 28 19 20 25 24 24 24 22 23 22 20 20 20 19 17 15 16
33 38 29 26 23 19 22 31 29 22 21 18 17 20 21 14 8 5 6 8 8 15 17 25 24 16 16 18 20 26 21 25 31 28 26 26 24 23 23 23 22 20 19 18
23 25 34 32 29 25 25 30 31 29 26 25 23 20 22 27 22 6 11 13 8 14 21 27 24 22 19 19 22 23 22 24 25 29 33 29 28 27 26 26 25 22 21 20
21 20 31 34 35 30 29 29 33 32 31 31 31 25 27 26 31 27 20 16 12 9 19 28 25 33 26 23 25 25 26 26 28 25 27 20 32 34 30 28 29 27 25 24
31 18 26 34 29 27 31 28 27 31 36 32 32 31 31 29 31 30 30 21 21 15 14 19 29 25 35 31 35 33 28 30 29 26 29 24 32 37 36 32 33 32 30 28
21 19 17 19 28 36 31 32 28 23 31 33 28 31 34 38 39 37 32 35 29 26 26 25 23 28 34 35 35 33 31 28 29 28 28 26 31 39 40 37 38 36 35 33
4 8 18 18 21 25 28 18 20 21 27 32 34 32 31 35 38 38 36 35 38 38 37 35 31 22 30 39 32 35 31 27 26 25 30 27 27 39 38 36 40 41 43 36
17 17 20 16 22 23 25 27 28 27 28 35 39 40 38 36 34 34 32 31 33 35 33 30 31 28 33 41 33 35 30 27 24 28 24 27 25 27 46 37 36 41 37 37
12 8 11 14 15 22 29 29 25 30 30 36 36 43 39 38 34 34 34 30 31 32 33 32 30 33 29 32 38 16 20 23 31 25 24 20 18 13 20 21 21 25 33 32
11 9 11 13 15 18 19 27 30 33 31 28 29 42 43 36 32 27 27 34 38 40 43 40 39 36 34 35 29 18 16 16 18 24 21 25 16 16 18 20 20 22 24 25
10 10 10 13 14 15 17 19 25 31 34 35 36 35 31 32 36 32 28 30 32 33 35 36 33 33 34 31 32 27 21 24 28 29 30 32 29 24 21 25 24 24 26 26
4 6 8 11 14 17 19 23 26 30 32 36 37 36 36 37 37 39 41 38 36 39 39 38 38 37 35 35 31 29 26 28 35 32 34 33 32 30 28 29 31 33 32 31
4 6 7 10 12 15 19 25 30 33 35 37 38 37 37 33 29 31 33 34 37 34 29 30 31 32 30 28 28 31 32 33 37 38 36 35 36 37 37 36 37 39 41 41
8 11 12 14 17 19 17 16 20 29 35 38 39 35 33 35 36 30 28 27 25 26 31 29 27 23 20 20 28 36 37 40 41 42 41 41 46 46 43 42 43 46 48 48
8 13 14 15 17 20 23 24 18 18 23 30 31 34 23 21 27 33 32 30 27 26 28 30 33 32 29 24 23 27 33 37 41 44 47 49 49 49 49 49 47 49 50 51
Wind_Direction
221 224 226 218 206 218 225 227 254 229 234 200 198 203 196 235 240 206 253 169 187 157 155 127 146 140 148 142 137 140 137 135 150 156 153 146 152 145 144 145 137 155 166 150
223 224 221 219 205 217 216 230 214 241 336 177 192 218 198 224 260 298 263 180 189 181 162 151 163 162 135 147 143 144 142 129 135 163 159 156 166 154 151 156 148 154 158 164
220 213 215 217 206 216 224 235 252 249 289 251 279 224 216 229 248 279 169 190 184 183 169 161 161 198 159 155 144 155 147 135 135 142 146 154 164 159 165 163 149 148 156 164
209 208 211 214 213 212 223 238 247 241 260 269 274 266 221 285 220 231 176 178 173 178 182 174 169 189 186 165 159 154 155 149 145 141 145 151 155 160 161 160 161 158 164 162
202 205 205 212 215 218 224 219 212 258 246 254 273 300 268 286 221 218 183 181 184 183 181 177 177 178 180 171 177 168 163 162 154 146 147 152 151 157 170 161 158 161 165 165
201 204 206 211 216 218 230 222 232 235 255 255 265 304 283 278 228 227 198 194 177 182 199 188 182 178 169 169 182 183 173 173 165 159 151 151 157 157 165 165 159 164 168 156
197 202 202 215 222 209 234 239 224 240 255 240 255 286 254 234 221 222 219 209 194 193 193 200 191 185 176 187 197 186 186 185 181 172 164 155 153 151 155 160 159 159 170 169
188 190 199 221 222 231 237 234 218 214 202 201 221 223 231 240 193 196 211 199 201 202 202 203 182 188 191 192 203 200 195 193 190 187 182 167 164 157 162 164 167 172 178 180
180 178 187 214 216 212 230 225 226 194 197 169 163 193 213 203 86 127 116 172 208 211 204 201 202 206 206 208 200 205 201 201 200 193 194 185 176 172 172 172 177 174 178 182
182 193 192 191 200 209 222 240 235 204 156 134 160 167 164 164 159 235 184 160 165 161 198 207 221 222 218 214 212 207 207 204 205 200 200 205 196 181 183 190 191 188 194 194
182 193 192 198 194 219 220 228 248 269 283 235 150 133 191 172 127 216 161 204 210 214 205 194 197 200 210 211 215 213 213 209 212 209 206 206 208 206 197 193 201 206 210 214
193 188 187 198 200 186 213 226 230 224 219 189 252 251 241 199 172 148 212 217 235 223 223 228 203 196 207 212 212 217 205 214 218 215 216 218 215 213 216 211 203 212 215 224
197 199 190 192 195 209 221 218 225 206 221 229 242 251 252 266 272 235 189 204 224 234 237 214 225 214 207 221 227 214 215 228 217 222 219 220 218 222 221 225 221 214 216 224
207 201 203 206 205 210 213 216 223 223 218 223 234 238 247 250 250 250 254 260 229 224 230 212 220 226 214 218 229 222 225 220 229 229 230 221 226 220 224 225 225 225 222 223
225 225 200 209 208 212 215 217 221 222 222 225 229 231 239 246 254 246 259 252 235 209 234 226 235 221 221 228 232 230 225 227 232 239 240 246 222 229 225 226 233 231 229 228
214 213 225 211 211 211 218 217 224 229 226 232 236 232 237 243 245 250 239 255 226 197 217 244 250 252 224 223 216 231 229 225 229 226 248 260 267 219 225 230 231 235 234 234
212 220 219 239 221 217 225 215 215 230 231 234 231 235 237 239 243 246 245 243 241 238 255 269 258 271 250 241 215 219 226 225 234 242 245 246 255 237 222 220 234 232 236 236
235 253 237 245 260 247 246 252 244 242 243 240 237 238 239 240 244 247 250 247 251 257 261 269 272 273 257 236 216 218 223 224 230 240 246 249 241 243 226 226 228 231 233 232
253 264 256 234 230 243 236 236 240 242 253 249 240 239 242 247 251 254 259 253 256 262 266 272 277 279 289 223 221 222 217 226 233 241 247 253 258 249 241 251 251 246 234 228
225 241 251 228 234 242 250 242 237 238 244 246 245 244 241 241 253 256 258 258 256 261 264 266 270 279 287 278 233 284 223 192 217 212 227 223 213 229 214 228 241 246 238 237
252 247 218 239 243 241 247 255 255 246 244 248 249 241 241 246 252 259 267 271 267 269 275 280 274 268 282 284 299 295 286 265 265 262 260 258 254 271 264 280 278 272 271 266
268 267 266 274 272 249 249 254 253 257 256 253 251 254 256 261 257 258 263 273 277 277 277 280 281 278 277 280 287 289 276 264 254 255 256 257 267 269 258 264 266 262 263 264
257 274 297 309 302 293 279 266 258 255 254 250 250 254 258 260 260 263 263 267 272 271 274 278 284 289 287 287 284 276 268 253 248 249 254 258 268 271 262 259 261 264 265 264
323 308 313 307 313 316 288 274 265 254 245 245 246 247 249 252 257 263 265 268 268 270 275 272 273 277 282 278 274 268 259 253 247 251 256 258 259 260 260 257 254 253 255 257
287 293 305 319 332 339 333 286 278 255 247 242 240 241 246 250 251 254 258 260 263 264 261 267 260 270 270 271 268 250 246 248 246 253 259 260 260 263 263 262 259 258 260 260
285 286 298 313 326 338 344 337 295 271 254 242 241 236 242 257 264 258 259 253 254 257 258 261 264 274 269 260 251 254 258 258 254 253 256 261 263 262 261 263 260 257 258 260